Theta_e
309 300 297 297 300 302 304 305 305 305 304 303 302 301 300 299 300 304 297 300 302 298 297 299 300 300 301 302 303 304 304 304 305 304 303 302 301 301 300 303 307 308 309 313 317 321 323 324 326 327 327 327 328 328 328 328 328 328 328 327 327 328 329 328 328 327 326 325 325 325 325 324 325 324 325 326 326 327 327 327 328 328 328 328 327 327
308 299 298 302 304 305 305 307 306 304 304 302 301 300 298 300 297 303 298 298 301 299 297 299 299 301 302 304 305 305 304 302 301 302 303 304 304 303 302 302 303 307 310 313 314 318 322 323 325 327 326 324 326 327 328 327 327 328 328 328 328 328 328 328 328 327 327 327 326 325 325 325 326 325 324 324 326 327 328 328 328 328 328 328 327 326
299 297 301 304 306 307 306 305 305 303 302 302 300 299 297 298 302 302 297 299 300 300 296 299 299 301 303 305 306 306 305 305 305 303 302 302 303 305 304 303 303 303 307 310 313 316 320 323 325 325 325 326 327 327 327 327 327 327 328 329 328 328 328 328 327 327 327 328 328 327 326 326 325 328 327 327 326 327 328 328 329 329 329 329 328 327
295 299 303 306 306 305 304 304 304 303 303 300 299 296 295 300 297 294 296 299 298 298 296 297 295 297 301 303 303 305 304 304 306 307 306 303 302 304 306 305 304 304 304 309 313 315 318 321 323 323 324 325 326 325 326 327 327 328 327 328 328 328 328 328 328 325 328 329 329 329 328 328 328 326 327 328 327 327 327 327 329 329 330 330 329 328
298 303 307 305 305 304 302 302 302 300 298 301 301 298 297 298 299 298 292 296 297 297 297 294 293 294 297 297 299 303 306 306 306 306 307 307 304 304 305 306 305 305 305 306 311 312 314 318 321 322 324 325 325 325 326 326 327 328 327 328 328 328 328 329 327 326 326 327 327 328 328 328 328 327 327 326 326 327 326 327 328 329 329 330 330 330
300 304 306 303 303 303 302 300 301 301 297 298 301 301 300 300 298 300 300 298 295 294 295 295 286 286 295 297 298 300 302 303 305 304 305 307 304 302 302 304 305 306 305 306 308 310 311 315 320 322 322 323 324 324 326 326 327 327 327 328 328 328 327 327 327 327 326 325 326 326 326 324 325 324 325 325 325 326 326 326 328 328 330 330 330 330
300 304 304 302 301 301 301 300 302 303 297 295 297 303 302 301 300 301 299 295 287 284 293 295 287 283 293 294 297 299 299 299 301 302 303 304 304 303 303 304 304 305 305 304 305 307 308 311 316 320 321 322 323 324 325 325 326 326 326 327 327 327 327 327 327 327 325 325 325 326 326 325 325 324 325 327 327 328 328 328 327 328 329 330 330 331
302 301 302 302 301 300 299 297 302 303 298 294 303 302 302 300 300 299 298 296 292 298 297 295 295 284 287 294 299 300 299 300 301 302 300 301 302 303 303 304 304 305 305 305 305 305 306 307 312 317 320 321 322 323 324 324 325 325 325 325 326 327 325 327 327 327 326 325 325 325 325 325 325 325 325 326 327 327 327 327 327 327 328 329 331 331
301 299 300 300 300 299 298 301 303 304 299 298 301 303 300 300 300 300 297 294 294 290 284 292 296 286 285 292 298 299 296 298 300 302 303 305 302 302 302 303 303 304 304 305 305 305 305 305 307 313 317 320 321 321 322 323 324 325 325 324 325 326 326 326 327 327 327 325 325 325 325 325 325 326 326 324 324 326 325 327 327 326 327 328 329 330
302 303 302 303 300 297 302 303 303 303 298 299 303 304 303 302 299 299 294 292 289 287 283 288 294 286 287 292 295 296 297 297 299 301 303 304 305 302 302 302 302 303 303 303 303 304 305 305 305 307 312 317 320 321 322 323 323 324 324 324 324 325 326 326 327 327 327 326 324 325 324 324 324 324 324 324 323 324 325 325 325 326 326 327 327 329
299 302 307 304 300 302 302 304 305 303 303 303 302 298 297 296 293 292 290 288 287 283 286 291 294 291 283 290 293 293 296 298 299 300 301 303 303 303 304 304 306 302 303 304 305 304 304 304 305 306 306 307 314 319 321 322 323 323 324 324 323 324 326 326 326 327 327 327 326 325 325 324 324 324 324 323 323 324 323 324 325 325 326 326 327 327
300 301 302 303 302 305 304 301 305 305 302 301 296 294 292 290 291 288 287 288 282 281 285 290 293 294 283 287 294 296 296 296 297 297 298 299 301 302 302 300 299 299 300 301 301 301 302 302 302 304 304 304 305 314 318 320 321 322 323 323 323 323 324 326 326 326 327 327 327 326 325 325 325 324 324 323 323 323 323 324 324 325 325 325 326 327
295 298 300 300 301 302 300 299 297 299 300 298 296 294 286 282 283 280 284 282 282 281 283 286 293 288 289 292 295 296 296 297 298 299 299 299 298 299 300 302 300 300 300 300 299 300 301 300 301 301 301 301 302 305 311 314 317 319 320 322 322 322 323 325 326 325 326 326 327 327 326 325 325 324 324 324 323 323 323 324 324 324 324 324 324 326
291 296 296 298 301 302 303 295 291 291 295 296 294 290 284 280 278 275 279 282 281 284 283 286 289 283 289 291 298 299 301 301 298 300 299 298 297 297 298 299 300 301 300 301 301 301 301 302 302 301 301 301 301 302 303 306 309 312 314 316 319 321 322 323 324 325 325 326 326 327 327 326 325 324 324 324 324 323 323 323 324 324 324 324 325 325
284 286 292 297 294 302 302 300 297 295 296 296 297 294 286 284 281 277 280 277 278 280 282 288 283 281 281 288 293 294 296 295 297 298 298 298 299 299 300 298 298 298 298 300 301 302 302 302 303 303 303 303 303 303 303 303 304 307 309 310 312 315 317 319 322 323 324 325 326 326 327 326 326 325 324 325 325 324 324 324 323 323 324 324 325 325
289 289 296 301 299 301 299 302 302 297 294 296 298 298 290 285 288 281 283 282 282 280 279 280 282 286 289 295 296 297 296 296 296 297 297 298 298 299 299 297 298 299 300 301 301 302 302 301 301 301 301 302 301 302 302 302 302 303 306 307 309 310 311 314 316 319 322 323 324 325 325 326 325 323 324 323 323 324 325 324 324 324 324 324 325 325
290 286 294 298 298 300 301 302 300 301 286 294 296 290 292 296 294 284 281 284 282 282 280 283 283 287 293 296 298 298 296 296 295 295 295 296 297 296 298 299 298 300 300 301 301 300 301 301 302 301 301 301 301 301 302 302 301 302 302 303 304 305 307 310 312 315 318 321 321 322 324 324 324 324 323 323 323 323 324 324 324 324 324 324 325 324
289 286 293 295 294 300 303 303 302 302 301 296 289 294 298 298 295 287 282 281 280 277 280 284 283 283 286 283 295 296 295 296 294 294 295 297 296 296 298 298 299 299 299 299 300 299 299 300 300 300 301 301 302 301 301 302 302 303 302 302 302 302 303 305 307 310 312 315 318 320 321 322 323 324 323 323 323 323 322 323 324 324 323 323 324 324
295 284 288 293 296 299 301 302 298 302 301 297 294 301 293 283 283 287 283 277 275 275 277 281 283 283 286 288 291 293 294 295 297 297 295 295 294 296 296 297 298 299 301 301 300 301 301 300 301 300 301 301 301 301 301 302 302 303 303 302 302 302 303 304 306 307 309 312 315 318 319 319 320 322 322 322 322 322 322 322 323 323 323 322 322 322
297 286 285 292 294 295 297 298 288 293 295 296 299 296 298 292 285 284 285 283 282 277 277 277 282 281 289 291 294 294 296 297 298 298 295 294 294 296 295 296 297 298 299 300 300 300 301 301 300 300 300 300 301 301 300 300 301 301 302 302 302 302 303 303 305 305 307 309 311 314 314 316 318 318 319 320 320 321 321 321 322 322 322 323 321 322
293 294 283 288 295 295 289 295 292 293 289 289 292 290 291 289 291 290 289 284 281 279 279 278 278 282 290 296 296 296 296 297 297 296 295 294 295 295 296 297 297 299 299 299 300 299 300 301 301 301 300 300 300 300 300 300 300 301 301 302 302 302 302 303 304 304 306 307 310 310 312 314 315 316 317 316 318 319 320 321 320 322 322 321 320 320
290 291 284 286 287 288 291 297 297 296 295 293 293 290 292 289 284 284 282 289 285 283 279 279 279 283 294 298 298 297 296 296 296 296 296 295 295 296 297 297 297 298 299 299 299 299 299 300 301 302 300 298 297 298 298 300 300 299 300 301 300 301 301 302 303 304 305 305 308 308 311 312 312 313 314 314 315 316 318 318 319 319 316 318 317 318
295 290 288 284 286 289 293 293 295 296 297 295 295 292 295 293 288 284 281 282 285 286 285 281 279 281 294 295 296 297 296 296 296 297 297 296 295 296 297 297 298 299 298 299 298 298 298 299 299 299 299 298 298 298 298 298 300 301 300 301 301 301 301 302 302 302 304 305 306 307 307 308 309 309 309 310 310 311 312 312 310 311 311 312 311 311
294 287 286 285 287 289 292 295 296 295 295 294 294 295 294 291 292 289 285 285 285 284 284 284 280 285 293 293 294 294 294 294 295 296 297 296 296 297 297 297 298 299 299 298 297 297 297 297 298 299 298 299 300 298 298 299 299 300 300 301 300 301 301 301 301 302 301 301 303 304 304 304 303 303 303 305 307 308 307 309 309 309 309 309 310 313
291 288 288 282 282 284 285 289 291 293 293 290 291 294 295 295 294 291 286 285 283 285 285 283 279 286 288 294 292 291 291 293 294 294 294 295 295 296 297 298 298 299 299 299 299 298 298 298 298 299 299 299 300 300 299 299 300 300 300 299 300 300 300 299 299 299 298 298 300 301 302 302 302 303 304 305 305 308 308 308 308 307 310 309 311 313
293 289 288 282 278 276 275 277 280 285 288 290 292 293 295 294 294 290 286 284 281 282 285 282 284 291 290 292 292 291 290 290 291 292 294 295 295 296 296 297 298 299 299 298 298 298 298 297 297 297 296 298 298 298 298 298 297 297 297 300 298 298 297 297 296 296 295 295 297 298 299 299 299 302 303 305 306 305 307 309 310 311 310 311 315 312
290 290 291 290 287 284 285 287 291 293 290 286 289 292 292 294 295 293 288 285 284 286 285 288 289 289 287 289 289 290 291 291 292 292 293 293 294 296 295 297 297 298 298 298 297 297 296 297 296 297 297 299 297 296 296 296 297 295 296 297 297 297 297 295 295 296 297 298 298 297 296 295 296 297 299 302 305 305 306 307 306 308 309 307 309 308
287 288 290 292 291 292 291 291 293 293 289 290 289 290 293 293 293 291 288 287 292 285 282 289 291 289 289 289 291 291 291 291 292 292 292 292 294 295 297 297 298 298 297 297 297 296 296 296 296 297 298 296 296 295 295 294 296 295 296 296 295 294 294 296 298 299 299 299 298 299 299 299 299 300 302 302 302 303 302 302 303 305 304 301 306 306
289 288 291 291 290 291 291 292 293 293 292 291 291 291 291 293 292 289 290 292 291 287 285 290 291 289 292 290 292 293 293 293 293 294 294 294 294 294 296 297 297 296 295 295 296 296 296 297 298 298 297 296 295 295 294 294 294 294 293 293 294 294 294 295 296 298 299 298 298 298 298 299 298 300 300 300 300 299 299 298 296 296 296 296 297 300
292 289 289 290 289 290 290 291 292 291 291 291 291 292 293 293 292 292 292 293 292 290 292 292 290 292 294 294 293 294 294 294 293 293 293 293 295 295 295 295 295 296 296 296 297 298 299 299 297 297 296 295 296 294 294 294 294 294 294 294 293 293 292 293 294 296 298 297 297 297 298 298 297 298 296 297 298 297 295 294 293 293 294 294 294 294
294 288 292 288 288 287 289 291 291 291 290 288 291 292 293 293 293 293 293 293 293 292 293 292 291 290 294 296 295 295 295 294 294 293 294 294 295 295 295 295 295 296 296 297 298 298 298 297 297 296 295 294 294 294 295 294 294 294 295 294 293 293 291 293 293 296 297 297 297 297 296 296 295 293 293 294 292 292 292 293 292 292 292 292 292 293
294 288 290 289 286 286 287 287 288 289 288 288 288 290 291 291 289 291 290 293 291 289 291 290 288 290 293 296 295 295 295 294 295 294 294 296 296 296 295 296 297 297 297 298 297 297 297 296 296 295 294 293 294 295 295 295 294 294 294 293 294 293 292 292 294 296 297 297 297 296 296 294 293 292 291 291 291 291 290 291 291 291 291 291 292 291
291 290 288 287 285 285 288 287 286 286 286 284 286 290 292 292 293 293 294 294 294 294 289 287 289 292 294 296 295 294 294 294 295 295 295 296 296 296 296 297 297 297 297 297 297 297 296 296 294 295 293 294 295 295 295 295 293 292 293 293 294 291 292 292 293 295 296 297 295 294 293 292 291 290 290 290 290 290 290 290 290 290 290 290 290 291
291 290 288 289 285 286 286 286 287 285 278 280 292 295 294 292 292 290 291 293 295 295 293 295 295 294 295 295 296 294 294 294 296 297 298 298 297 296 296 296 297 296 297 297 297 296 296 295 294 294 293 294 294 293 292 293 294 292 292 292 292 292 291 291 292 295 294 293 293 293 291 291 291 290 290 290 290 290 290 289 289 289 289 290 289 289
289 290 289 288 287 282 284 286 283 278 280 291 295 296 296 296 295 293 293 294 294 296 295 295 295 295 295 295 296 297 297 296 296 297 297 296 296 295 296 296 296 296 297 296 296 294 294 294 294 294 294 292 291 291 291 291 291 290 289 292 291 289 290 290 292 294 294 293 292 291 291 291 290 290 290 289 289 289 289 289 289 289 289 288 288 288
289 289 289 287 286 285 283 283 276 278 289 294 293 294 296 296 295 293 291 293 295 295 295 294 296 297 297 297 296 297 296 295 295 296 298 297 296 296 296 298 296 295 295 295 294 294 293 294 294 293 292 291 290 290 289 290 289 289 289 289 288 287 288 291 291 291 291 291 291 290 290 290 289 289 289 288 288 288 288 289 288 288 288 289 289 289
293 290 290 285 287 281 281 283 283 289 287 290 289 290 292 290 291 290 286 290 295 296 295 295 296 297 297 298 296 295 293 294 293 297 300 296 298 298 300 299 297 296 295 294 294 294 293 292 291 289 288 288 288 289 289 288 288 289 289 288 286 287 289 289 289 289 290 290 290 289 289 289 289 289 288 287 288 288 288 288 288 288 288 288 288 288
294 288 288 286 281 285 282 280 282 281 280 285 291 294 297 297 297 295 290 289 295 296 298 296 296 297 297 298 295 291 292 289 290 294 296 297 300 301 300 297 294 294 294 293 292 290 288 287 287 287 288 286 287 286 286 287 287 288 288 287 285 285 287 289 289 289 290 290 291 289 289 289 289 289 287 287 288 288 287 287 287 287 287 287 287 288
290 291 288 287 283 283 282 280 280 279 283 292 292 294 296 297 296 294 288 286 294 296 297 297 297 297 297 296 294 291 290 286 290 295 298 297 299 300 296 294 294 293 292 292 293 289 287 287 286 286 286 287 286 285 285 285 286 287 288 286 286 286 288 289 289 289 289 290 291 290 290 288 288 288 287 287 287 287 287 287 287 287 287 288 287 287
286 286 286 284 280 283 283 282 280 284 286 289 292 294 296 297 297 291 282 283 295 296 297 297 297 297 297 297 295 293 291 290 292 297 298 298 299 296 296 295 292 290 286 286 285 286 287 286 286 287 286 284 284 284 284 285 286 285 286 286 285 286 285 286 289 290 291 291 291 291 290 289 288 288 287 287 288 287 287 287 287 287 287 288 287 287
284 284 286 283 284 284 284 283 284 285 290 288 290 293 295 297 294 285 280 289 294 296 297 298 297 297 297 295 296 293 296 299 300 295 293 293 293 291 290 290 290 290 288 286 287 287 287 286 287 285 284 282 283 283 283 284 285 285 285 285 285 284 285 288 289 289 290 290 289 288 288 288 288 288 288 287 287 287 287 287 287 286 287 287 287 286
285 285 285 286 284 282 283 282 283 287 291 293 288 294 296 293 283 283 293 292 293 295 296 297 297 298 298 297 298 298 300 301 292 288 291 293 294 290 288 287 287 285 284 285 285 286 287 286 285 283 283 282 282 282 283 283 285 284 284 284 283 283 283 284 286 287 289 289 287 287 286 286 286 287 287 287 286 287 287 287 286 286 286 287 286 286
285 284 282 283 286 285 284 282 281 280 290 296 292 290 294 289 290 291 288 291 291 293 293 293 296 297 298 297 298 299 299 292 289 289 290 289 289 288 287 287 287 286 285 284 283 283 287 285 284 283 282 282 281 282 281 282 284 283 283 282 281 282 283 282 283 286 288 287 286 286 286 286 286 286 286 286 286 286 286 286 286 286 286 286 286 286
291 285 285 285 288 282 283 281 283 290 291 296 295 290 292 296 292 291 289 290 289 290 293 293 292 295 296 297 297 296 295 290 287 287 288 287 288 286 286 286 286 285 284 282 283 284 285 284 283 282 281 281 281 281 281 282 283 282 281 280 281 281 282 281 281 283 285 286 286 286 286 286 286 286 286 286 286 286 286 286 285 286 286 285 286 285
290 289 290 286 290 287 286 289 291 289 293 297 298 297 297 298 292 289 291 290 290 289 287 292 294 292 294 296 295 295 294 291 291 289 289 287 287 287 287 286 286 285 284 283 282 283 284 284 282 281 280 280 279 280 280 280 281 280 279 278 279 280 279 280 280 281 282 284 285 285 285 285 285 285 285 286 286 286 285 285 285 285 285 285 285 286
293 292 289 289 289 293 293 291 291 291 288 291 294 294 297 298 291 288 290 290 288 289 291 294 293 293 293 294 295 291 292 290 289 286 287 287 287 285 285 284 284 283 282 282 282 283 283 283 282 281 279 278 278 278 278 277 278 279 277 278 278 277 278 279 280 280 279 278 279 280 283 285 285 285 285 286 286 286 285 285 285 285 285 285 285 285
287 291 290 288 288 289 286 294 293 292 288 289 294 292 289 296 297 291 288 290 291 289 290 290 290 291 290 290 293 293 290 288 289 287 287 286 286 286 285 284 283 283 282 281 281 282 283 283 282 280 279 277 276 276 276 275 276 276 276 276 277 276 278 279 280 279 277 276 277 277 279 282 283 284 284 285 286 285 285 285 285 285 285 285 285 285
286 289 288 287 288 289 290 292 293 294 289 291 294 293 292 294 295 290 287 287 287 287 288 289 288 289 289 289 289 288 287 287 288 287 287 287 286 285 284 284 282 281 280 280 281 282 283 283 281 278 277 276 276 274 274 274 274 273 274 274 274 275 277 278 278 278 276 276 276 277 276 278 280 280 280 281 284 285 285 285 285 285 285 285 285 285
290 292 287 289 288 290 292 290 290 289 290 291 292 292 293 295 294 289 287 286 286 287 287 288 288 288 288 288 288 289 288 287 288 288 287 286 285 284 283 282 281 280 280 280 280 282 282 281 278 276 276 275 274 273 273 272 273 273 273 273 274 274 276 277 276 275 275 276 276 276 277 277 276 277 277 277 277 281 282 283 284 284 284 282 283 283
290 287 290 289 286 287 287 291 292 287 288 290 290 291 290 291 293 293 289 287 286 286 286 287 287 286 285 286 288 289 289 287 286 287 287 286 285 283 282 281 280 280 278 278 279 279 278 277 276 275 274 274 273 272 272 271 271 272 272 272 273 273 274 275 277 275 276 276 275 276 276 275 275 276 277 276 275 275 275 280 283 281 279 279 282 283
290 290 291 287 287 287 293 295 295 295 288 288 292 291 290 288 290 290 290 289 287 286 287 287 287 287 287 287 285 288 288 288 287 287 286 284 283 282 282 281 280 279 278 278 277 276 276 275 275 274 273 273 271 271 271 270 270 270 271 271 272 272 273 274 277 276 276 276 274 275 275 275 275 276 275 277 277 275 275 275 278 282 283 282 281 283
Wind_Speed
8 9 9 11 8 10 10 13 12 14 8 6 7 6 8 6 6 4 9 5 6 5 8 7 8 7 7 5 4 6 8 10 10 8 7 6 6 6 5 6 8 8 8 6 8 9 10 9 9 9 8 8 8 8 9 10 9 10 10 9 10 9 9 8 9 9 9 10 8 8 9 9 8 8 7 8 7 7 8 8 8 8 8 9 9 9
8 8 12 12 14 14 12 11 12 12 11 8 4 4 5 5 5 5 5 3 0 1 3 5 6 8 7 6 5 5 5 6 6 8 9 9 8 8 10 9 8 9 5 6 6 7 8 9 9 9 8 8 10 10 10 11 11 10 10 11 10 8 10 10 8 7 8 9 9 8 9 8 8 8 9 9 8 8 7 8 8 8 8 9 10 9
8 14 11 12 9 9 11 12 11 11 10 8 5 4 4 5 5 2 8 2 4 1 5 4 8 10 8 7 6 7 8 7 6 8 9 10 11 10 10 10 10 7 7 8 9 7 8 10 10 10 9 9 11 11 12 12 11 11 11 10 10 9 10 10 10 8 8 6 7 7 5 7 6 6 7 8 7 7 8 8 8 9 9 10 9 10
10 10 11 12 8 7 9 10 10 10 9 6 5 5 5 3 5 3 2 2 3 2 2 2 6 8 9 9 12 10 9 8 8 10 11 12 13 13 12 11 11 11 10 10 10 10 9 10 10 9 10 11 10 10 10 11 13 12 11 11 11 10 10 10 11 10 7 7 6 6 5 4 6 5 5 7 7 7 7 9 7 8 10 11 10 10
7 4 7 10 14 14 11 10 11 10 8 7 6 4 4 5 5 4 3 2 4 4 4 4 5 7 9 10 9 9 14 15 16 15 14 11 10 10 8 7 8 12 12 11 11 11 10 10 11 13 14 11 11 12 12 13 13 11 14 14 13 12 12 11 12 12 9 7 6 6 6 5 6 5 6 6 8 10 9 8 9 10 6 9 11 10
9 8 11 11 10 12 12 12 13 8 8 7 8 5 4 4 4 4 5 3 0 2 2 0 4 4 4 8 7 3 4 11 10 10 12 12 8 7 8 10 8 7 8 13 14 14 13 13 12 12 11 11 12 13 13 13 14 12 12 13 13 11 11 11 12 13 11 10 9 8 9 10 9 10 10 12 13 11 12 13 9 8 9 7 9 10
8 8 10 13 13 12 12 11 10 9 7 6 6 8 7 4 4 1 2 7 2 1 1 1 5 5 7 11 7 5 6 5 2 7 9 7 7 8 10 10 11 11 10 7 6 8 10 11 12 12 12 13 13 14 12 11 12 14 12 12 13 12 11 11 11 12 12 12 10 11 11 11 12 12 11 10 8 9 10 8 10 10 10 10 10 10
7 11 10 11 12 13 11 11 10 13 7 6 1 13 7 4 2 1 3 1 3 2 1 3 1 4 7 9 8 7 9 10 11 9 6 8 9 10 10 11 12 12 11 10 11 8 8 9 12 14 14 13 14 13 9 10 11 13 14 12 12 11 11 10 10 11 12 13 13 12 12 11 12 13 12 10 10 7 8 9 10 9 10 11 11 10
16 11 11 12 12 10 11 10 6 14 8 2 1 6 4 4 2 1 1 1 2 3 5 2 2 3 5 3 5 9 9 12 15 14 13 12 10 10 9 12 11 9 9 10 9 9 9 9 9 10 12 12 12 8 10 12 12 11 10 10 9 11 12 11 13 13 13 13 13 13 12 12 11 12 10 7 7 8 7 10 9 10 10 10 12 12
7 12 13 9 8 11 9 8 6 12 9 1 2 3 2 2 3 2 1 1 2 1 5 3 5 5 7 4 8 4 8 11 9 10 10 11 10 10 12 10 8 8 8 7 6 6 7 8 7 7 7 8 9 8 8 7 6 8 8 10 11 12 12 12 12 14 14 14 13 13 14 15 13 10 9 7 8 8 8 9 10 10 9 10 10 12
2 5 10 10 10 6 6 7 4 8 3 4 6 8 6 5 3 2 3 1 0 5 6 7 5 4 7 3 8 5 6 5 6 4 3 2 4 3 3 2 2 4 4 2 1 1 3 4 6 6 6 6 6 7 9 9 9 8 9 10 12 14 11 11 13 14 15 14 13 14 15 16 15 13 11 9 10 9 8 10 10 10 9 8 10 9
2 4 6 2 3 5 4 2 2 7 9 7 3 4 6 4 3 2 0 2 1 4 1 3 8 8 8 3 7 2 1 1 2 3 4 5 3 3 4 3 4 4 5 3 2 3 4 3 3 3 5 6 6 6 8 8 8 9 9 10 12 12 12 12 12 12 13 13 13 13 14 15 15 13 10 12 12 11 11 10 10 9 8 9 8 9
7 10 1 2 4 3 5 8 4 9 7 5 6 7 8 3 2 1 2 3 5 5 2 1 2 2 16 7 6 1 3 2 4 3 2 1 1 1 1 1 1 2 1 3 4 5 5 5 5 6 6 5 5 6 7 7 6 6 7 9 10 12 12 11 10 10 11 11 12 13 13 13 11 11 11 11 11 10 10 9 9 9 10 9 10 11
2 3 2 2 1 3 9 12 7 7 7 9 10 8 6 4 2 2 3 2 2 0 2 1 4 6 3 4 13 16 17 8 6 4 4 4 4 3 2 2 1 2 4 5 5 5 5 5 5 5 4 4 5 4 5 5 5 5 5 5 7 10 7 7 8 9 10 12 12 11 11 12 10 11 12 11 10 10 9 9 10 11 11 11 13 13
8 4 6 11 8 6 10 10 11 7 11 8 4 7 4 4 5 6 5 6 5 2 0 2 2 6 4 4 1 4 3 4 2 6 3 3 2 1 0 1 2 3 5 5 4 3 3 3 3 2 1 1 1 2 3 3 4 5 5 5 6 6 6 7 8 8 10 11 11 11 11 11 10 12 11 11 10 9 10 10 11 10 10 11 12 12
16 5 6 12 3 10 8 6 8 10 4 5 4 3 4 7 1 3 2 1 1 2 1 2 6 2 4 3 7 5 5 4 1 3 5 2 2 1 1 2 4 3 1 2 1 1 2 2 2 2 2 2 3 2 2 4 5 5 6 6 7 8 7 6 6 7 8 8 8 8 11 12 11 9 9 10 10 11 11 11 11 12 11 11 10 10
7 8 4 9 4 15 13 9 9 14 10 8 7 10 5 3 0 2 3 0 2 2 8 4 5 6 4 10 12 10 6 5 5 4 3 4 5 5 2 2 2 2 1 1 1 1 1 1 2 4 4 4 4 4 5 5 4 5 4 4 5 5 4 5 6 7 8 9 9 10 10 10 11 11 11 11 10 11 10 10 10 10 11 10 10 10
12 2 2 8 6 7 7 3 6 8 4 6 7 7 3 5 3 2 2 1 1 4 5 7 9 3 0 8 4 12 9 7 5 5 5 4 5 4 4 3 3 2 2 2 2 2 2 2 3 3 4 4 4 4 4 4 3 2 2 3 4 4 5 5 5 6 6 6 7 8 9 9 10 11 12 11 11 9 9 9 9 8 9 10 8 8
10 5 1 1 7 6 0 5 8 5 3 10 9 5 9 3 3 3 1 3 4 4 3 4 7 4 9 8 1 2 9 8 8 6 6 5 6 5 5 4 3 2 1 1 2 2 2 3 4 4 4 4 4 4 3 2 2 2 2 3 4 5 5 5 5 5 5 6 6 6 7 7 8 8 8 8 8 8 10 11 9 9 9 7 8 8
8 6 3 2 1 4 4 8 11 12 1 3 3 8 5 2 1 7 7 1 3 4 2 5 5 6 9 8 8 7 9 12 11 9 8 8 7 7 5 5 5 3 3 2 2 2 2 3 3 3 3 3 4 4 4 3 2 3 4 4 5 5 5 5 5 5 5 5 5 5 4 5 6 6 6 7 7 8 10 10 9 9 8 9 7 8
7 6 6 3 2 6 8 8 13 15 13 6 8 6 5 1 2 2 1 4 4 2 4 3 4 7 5 10 11 12 8 8 9 9 8 7 8 7 7 6 5 5 4 4 3 2 2 2 1 2 3 3 2 2 2 3 4 5 4 5 5 6 5 6 6 5 5 4 5 5 7 7 6 7 6 6 7 8 9 9 9 9 8 6 8 7
4 8 9 8 4 9 10 6 1 7 11 12 13 12 13 10 5 10 7 2 2 2 4 3 10 3 2 2 9 9 6 6 7 11 10 9 10 10 8 6 6 5 5 5 4 3 3 2 1 1 2 2 3 3 4 4 4 4 4 4 4 4 5 5 5 5 5 5 4 5 5 6 5 5 5 6 6 7 7 6 7 7 5 6 6 7
5 3 10 10 11 11 3 2 1 5 4 4 6 7 9 6 2 3 8 6 3 5 2 1 3 10 7 3 6 6 4 7 8 10 11 10 9 8 7 6 6 6 6 5 4 4 4 3 3 2 2 3 3 4 4 4 5 5 5 5 5 5 6 5 5 4 4 5 5 6 5 5 5 5 5 6 6 6 6 5 5 4 5 5 5 4
9 5 9 4 4 4 2 1 4 2 2 7 8 5 9 14 16 10 2 2 7 4 5 5 6 7 1 3 2 4 6 7 6 9 10 7 5 7 7 6 7 5 5 4 4 4 4 4 3 2 3 2 2 3 4 4 4 5 5 5 4 6 6 5 5 5 4 4 5 5 5 6 6 5 5 5 5 6 5 5 5 4 3 4 4 6
6 3 11 8 5 1 2 2 3 1 1 6 11 14 11 8 7 5 1 1 1 8 9 7 10 14 3 2 3 5 5 7 6 3 6 6 5 6 8 7 7 6 5 5 5 5 4 3 3 3 2 2 1 1 3 4 4 5 5 5 6 5 5 5 4 3 4 5 6 7 7 7 6 6 7 7 5 6 5 5 5 4 4 4 4 5
8 10 15 14 16 15 12 11 14 15 18 9 4 5 8 12 15 9 9 3 6 4 6 5 9 14 2 1 3 5 5 5 5 5 2 5 6 7 7 7 6 6 6 6 5 4 4 5 3 2 3 3 3 3 4 4 4 4 4 6 5 5 5 5 4 4 4 4 5 6 6 6 5 5 5 5 5 5 5 5 5 6 5 5 7 7
4 6 12 13 18 17 16 9 2 7 6 6 11 18 18 10 8 8 3 4 12 13 11 14 18 10 3 5 4 5 6 9 7 6 8 5 5 7 7 7 6 7 7 6 6 5 3 3 4 5 4 4 4 4 4 4 4 4 5 5 5 5 5 4 3 2 3 4 5 5 5 5 4 4 4 4 5 5 5 5 5 5 6 5 6 5
2 8 14 13 15 11 6 5 15 21 21 20 18 13 12 16 15 15 15 19 20 7 5 18 21 12 9 6 8 8 6 6 6 7 7 6 8 8 7 6 7 6 4 4 4 4 6 6 4 4 5 5 4 3 3 4 5 5 5 5 4 4 3 3 3 3 4 3 4 4 5 4 4 4 5 5 5 5 5 4 4 5 5 5 6 6
4 11 13 13 15 6 7 9 14 12 14 15 18 20 19 17 16 17 21 24 7 11 20 20 8 14 17 7 8 9 9 9 11 11 10 10 6 5 6 6 7 6 5 6 7 6 6 6 5 5 5 5 4 4 5 5 5 4 4 4 3 3 4 4 4 3 3 3 3 3 3 4 3 3 4 5 5 5 5 5 4 4 4 4 4 4
2 9 5 9 8 7 4 10 11 14 10 11 16 18 19 20 23 23 23 18 15 17 24 9 12 21 16 10 10 9 7 7 6 5 5 6 8 9 8 8 7 6 7 7 8 7 7 6 5 5 4 4 5 5 4 4 4 4 4 4 4 4 4 3 4 3 3 3 3 3 3 4 4 3 3 4 4 5 5 5 4 4 4 4 4 4
6 6 7 5 8 8 5 7 10 13 13 14 15 17 18 16 18 23 23 20 17 21 24 13 10 13 3 7 9 6 8 6 5 8 8 7 8 9 9 8 7 7 7 7 8 7 5 5 5 5 4 5 5 4 4 4 3 3 3 2 2 3 4 4 3 3 3 4 2 3 2 2 3 2 3 3 4 4 4 4 4 3 4 4 3 4
10 5 6 6 9 9 6 7 9 9 12 13 13 16 17 19 20 22 24 25 17 22 21 12 11 19 5 3 5 8 10 9 9 8 7 8 11 9 8 8 8 8 8 8 7 5 4 5 6 5 5 5 2 1 2 2 3 2 3 3 2 2 2 2 1 2 3 4 3 2 1 2 3 3 3 3 4 3 3 2 2 3 3 3 3 3
13 9 10 9 11 13 11 8 6 6 6 7 16 22 27 29 28 28 24 14 14 23 14 11 27 7 5 9 6 5 6 9 9 8 9 11 9 9 10 9 10 9 7 7 6 4 5 6 6 5 5 2 1 1 1 0 1 2 2 2 1 3 2 1 1 2 4 3 3 2 2 2 2 3 3 3 2 1 1 1 1 2 2 3 2 0
8 11 8 7 10 10 10 9 8 9 13 16 20 29 30 27 27 20 19 23 23 14 16 21 16 3 9 8 14 8 9 10 11 11 12 12 11 9 7 8 8 8 7 7 5 5 5 4 4 4 3 2 1 2 2 2 0 1 1 1 1 0 1 1 1 2 3 3 2 2 2 2 1 2 1 1 0 0 0 0 2 1 1 1 1 2
15 12 8 7 9 6 9 11 9 16 16 20 4 8 15 17 15 21 25 23 20 19 22 22 16 13 5 6 7 11 8 5 6 10 11 8 7 7 8 8 9 8 8 6 5 5 5 5 4 2 1 3 3 2 2 2 2 2 3 1 0 1 1 1 0 2 2 1 1 1 1 2 2 2 1 1 0 0 0 1 1 1 1 1 3 3
9 14 8 6 3 4 8 11 9 13 14 1 11 14 11 11 16 17 22 23 22 24 25 22 22 17 13 12 7 7 7 5 5 10 14 8 6 6 7 12 8 7 6 6 5 5 5 5 4 3 3 2 4 3 3 2 3 3 1 1 2 2 2 1 2 3 2 2 2 2 2 3 3 2 2 2 1 1 1 1 1 2 1 1 1 0
6 7 9 7 4 10 7 13 13 4 3 2 4 12 17 20 24 24 22 26 24 14 12 18 22 18 17 14 7 5 4 2 4 14 15 6 7 10 17 13 7 8 6 5 5 4 3 4 5 4 4 3 3 2 2 2 2 1 0 1 2 2 1 1 2 3 3 2 2 2 2 3 3 2 2 2 2 2 2 2 1 1 1 1 1 1
6 13 5 7 5 1 9 7 4 5 12 9 19 14 20 18 13 9 6 18 5 17 21 20 20 21 19 16 9 5 5 4 8 18 9 10 16 20 17 4 5 6 6 4 4 6 5 5 6 5 5 4 4 4 4 2 1 0 0 2 2 2 1 2 3 3 3 3 2 2 3 3 3 3 3 3 3 3 2 2 1 2 2 2 2 1
2 3 3 7 3 2 4 9 9 12 15 19 15 13 7 7 9 13 5 17 17 18 21 23 26 20 16 15 10 8 7 6 14 20 7 13 17 16 8 7 8 6 5 6 8 7 6 6 5 5 4 5 4 4 3 3 1 1 1 2 2 1 1 1 2 3 3 4 3 2 2 2 2 3 3 3 3 2 2 2 2 1 2 2 2 2
6 6 8 5 2 6 7 8 12 7 13 6 12 15 13 11 14 10 10 13 27 17 13 18 24 21 16 14 11 10 9 14 20 20 11 13 14 10 11 10 7 6 5 6 5 7 8 6 5 5 6 5 3 3 3 2 2 2 3 2 2 2 2 1 1 2 3 3 1 0 0 1 2 2 2 2 1 1 2 2 2 1 1 1 2 2
7 3 9 13 10 11 12 4 5 7 8 3 7 14 14 14 12 14 15 23 9 11 19 20 17 17 15 13 14 13 19 22 24 5 8 9 7 5 3 4 7 8 10 8 8 8 7 5 7 8 6 3 2 2 3 2 3 4 3 3 4 4 3 1 0 1 2 3 2 2 2 1 0 1 0 1 2 2 2 2 2 2 2 2 2 2
7 5 1 4 9 10 9 11 11 10 7 7 3 12 17 13 7 17 21 2 7 12 12 16 17 19 20 24 21 22 25 30 8 6 8 11 12 9 8 9 10 9 7 6 7 7 8 8 9 8 5 3 3 3 3 3 6 4 5 6 5 4 4 4 1 2 3 3 3 3 3 3 2 1 1 0 2 2 2 1 2 2 2 2 2 2
12 9 11 13 8 3 2 3 3 10 12 24 11 8 11 14 15 7 4 1 2 7 9 10 15 16 18 19 19 19 20 6 7 8 9 7 10 10 10 10 12 12 11 9 6 5 10 10 8 7 5 4 4 3 3 5 6 5 5 6 4 4 4 4 4 3 4 3 4 4 4 3 3 2 2 1 1 2 2 2 2 1 2 2 2 2
14 13 8 7 5 10 12 12 13 19 5 21 20 17 17 13 3 3 5 3 1 5 9 10 8 9 11 13 14 12 11 6 4 6 7 7 7 7 6 7 8 9 8 5 5 7 10 11 9 8 5 4 4 4 4 5 7 6 6 4 3 4 4 4 4 5 5 4 3 3 4 3 3 3 3 2 2 2 2 2 2 2 1 1 2 1
10 13 14 19 16 13 17 20 9 6 11 16 18 13 13 13 5 4 6 6 7 6 2 7 8 6 8 11 11 13 12 9 11 12 12 9 10 11 11 9 10 10 10 9 7 7 8 11 11 9 7 5 5 5 5 4 7 6 6 3 3 4 4 4 4 5 5 5 4 4 3 4 4 4 3 3 2 2 2 2 2 2 2 2 1 1
13 10 3 6 8 9 10 6 5 6 2 7 5 2 11 14 5 3 1 4 3 5 8 8 7 7 9 9 11 8 9 8 8 7 7 10 10 7 8 9 8 8 8 8 7 8 9 10 9 9 9 7 6 6 5 5 5 7 2 2 3 3 3 4 5 5 5 4 4 4 3 3 4 4 4 3 3 3 2 2 1 2 1 1 1 1
3 5 5 7 2 10 12 17 17 12 3 3 10 5 4 9 13 6 4 1 0 2 5 1 3 6 6 6 10 11 8 8 10 9 9 9 10 11 10 10 8 7 8 9 7 9 9 9 9 8 7 7 4 5 4 5 5 4 2 3 3 3 4 5 5 5 4 4 3 4 4 4 3 2 3 3 3 3 2 2 2 2 1 1 0 0
7 5 6 6 8 15 22 11 9 10 6 8 10 11 11 11 11 4 3 3 2 1 3 4 2 5 7 6 7 7 6 7 12 10 10 10 10 9 9 9 10 9 7 7 7 8 8 8 8 7 7 6 4 3 4 4 5 4 4 4 4 3 4 5 5 5 4 4 4 3 3 3 4 3 2 2 2 2 2 1 1 1 0 0 0 0
10 18 11 10 11 12 10 6 6 1 9 15 12 9 7 7 9 5 4 4 3 3 2 1 1 4 5 7 7 10 10 9 11 13 11 8 9 9 9 9 8 10 9 9 7 7 8 7 8 7 7 6 3 3 4 5 5 5 6 5 4 4 5 5 4 4 4 4 4 4 3 3 3 3 2 2 3 3 3 2 3 3 4 4 3 2
10 13 8 10 10 10 13 19 14 9 11 12 7 9 7 8 10 12 6 2 1 3 3 4 3 2 4 6 9 11 13 9 7 10 11 9 9 10 11 11 10 11 9 8 8 9 9 8 8 8 8 5 4 4 5 5 5 5 5 5 4 4 4 4 5 5 5 5 4 4 4 3 4 4 4 4 3 3 3 6 3 2 2 1 4 4
16 18 15 14 14 18 23 22 9 12 4 3 13 8 7 5 6 7 10 10 7 5 6 7 6 2 3 1 4 10 11 13 10 10 11 9 8 7 9 13 14 11 10 10 11 10 9 8 8 8 8 6 4 5 5 6 5 6 6 5 4 4 4 3 5 5 5 4 4 4 4 4 3 4 4 5 5 4 2 1 4 7 6 3 3 3
Wind_Direction
165 164 186 196 190 187 198 205 210 225 244 229 212 196 223 227 255 225 128 190 196 167 207 221 240 244 257 256 243 222 214 219 225 221 217 212 212 219 224 197 200 206 215 209 196 186 188 188 181 179 180 180 182 185 186 196 199 191 194 194 199 191 189 189 191 187 186 193 196 206 204 203 194 198 195 200 201 196 196 195 193 189 183 179 183 187
193 189 198 188 191 184 192 215 220 232 247 257 258 218 225 234 247 269 136 160 86 198 233 216 244 250 250 253 246 251 255 239 209 215 219 223 216 208 210 216 206 206 205 199 208 197 184 184 181 178 184 178 183 193 189 196 198 196 193 197 199 182 192 200 204 201 194 193 199 200 207 199 193 192 198 203 202 201 196 196 196 191 184 178 182 186
197 208 182 189 196 193 202 206 226 233 236 243 234 213 233 232 240 41 116 138 120 80 265 261 268 269 260 256 253 239 239 239 228 218 215 212 221 222 214 212 214 206 200 197 200 193 187 186 183 182 187 191 191 187 194 195 194 198 198 200 194 189 190 199 201 205 210 199 199 202 209 203 209 208 200 203 199 191 199 205 198 190 185 185 185 184
197 217 192 176 185 219 216 212 219 231 240 237 219 227 222 210 190 201 15 130 176 182 300 319 305 290 285 270 262 256 254 250 236 233 227 210 213 215 216 207 206 207 199 196 195 198 196 187 186 186 191 195 187 189 196 195 195 197 201 198 192 195 189 192 199 204 206 201 200 206 208 211 210 205 198 201 201 200 202 216 211 205 194 190 191 187
179 126 193 184 187 204 200 199 213 219 223 233 240 212 232 224 213 240 151 251 153 225 218 306 291 267 257 257 249 235 224 230 231 234 241 231 218 213 219 225 205 203 200 200 200 202 197 191 192 193 196 188 190 196 197 196 196 199 200 199 195 195 192 189 193 197 199 192 198 197 206 215 219 231 204 194 212 209 209 212 216 217 200 195 194 191
198 147 182 207 202 208 196 200 209 194 222 225 226 223 235 262 272 203 155 167 328 314 115 198 338 283 231 237 249 270 208 224 234 230 231 232 221 205 217 226 234 231 209 200 202 201 198 195 197 198 194 191 199 202 203 197 198 198 200 198 198 197 197 194 189 190 189 198 199 194 197 205 209 213 210 209 206 200 204 210 210 216 215 207 199 196
191 149 170 197 202 199 203 206 193 191 212 220 213 195 240 281 317 311 210 79 293 214 215 252 180 273 338 310 288 298 316 298 290 205 226 222 215 203 212 219 226 229 233 231 217 202 197 199 194 198 196 198 201 208 202 195 200 202 200 198 196 197 199 197 193 181 183 195 202 205 207 209 210 213 220 218 208 201 206 202 203 211 214 216 209 204
174 175 180 198 202 200 201 208 181 182 203 229 316 176 197 211 237 8 4 139 261 347 158 205 146 248 279 255 266 296 281 266 265 256 232 221 217 211 210 214 222 225 226 223 224 214 203 196 192 197 200 200 206 207 189 198 202 202 203 196 195 196 198 198 191 185 184 194 199 206 212 212 216 218 223 211 213 203 189 200 204 202 209 213 218 217
177 173 185 192 200 193 203 197 167 179 201 189 296 119 173 193 195 217 92 282 277 58 293 186 194 284 234 268 220 221 245 251 250 247 246 238 220 214 215 220 222 224 224 221 222 220 213 209 207 201 201 205 207 195 193 200 202 201 201 199 197 199 200 200 191 192 189 193 196 203 210 218 223 224 226 216 204 205 192 198 199 203 205 207 214 218
177 193 180 194 188 196 192 185 206 174 189 270 241 109 133 143 36 17 94 73 358 57 249 182 186 242 272 242 276 211 223 240 232 229 228 228 214 201 211 218 216 214 218 220 219 215 214 216 221 216 205 199 200 193 193 198 193 198 197 199 200 206 204 200 196 196 197 194 193 201 208 217 223 220 224 209 210 206 196 204 201 202 202 204 207 211
95 353 165 191 200 189 172 192 174 169 123 146 101 84 73 61 63 37 64 48 8 253 242 201 223 180 298 221 216 214 223 222 210 229 227 115 101 102 135 168 210 180 164 161 180 188 191 195 198 203 207 200 189 183 182 189 193 192 195 200 203 210 207 202 203 200 203 200 197 204 207 213 219 218 216 215 221 213 204 208 205 202 205 200 206 204
125 123 173 222 64 182 138 59 22 126 135 131 127 126 89 35 82 81 254 106 201 251 16 229 196 183 217 268 253 221 284 21 79 140 122 128 112 73 39 49 76 95 126 148 168 234 236 247 242 190 204 207 191 176 185 192 191 192 196 197 205 211 209 208 207 204 206 206 206 210 211 214 217 214 213 214 218 213 214 210 208 203 201 207 202 201
168 173 114 103 352 144 130 112 50 124 153 125 137 147 122 173 98 270 154 216 205 245 241 302 154 237 237 227 276 224 232 186 203 191 188 147 75 35 20 131 134 128 133 169 211 220 218 210 214 211 219 216 207 195 198 199 196 199 200 201 206 215 213 211 205 206 210 208 212 213 216 221 220 220 221 220 221 214 215 211 209 202 208 203 205 207
215 37 347 82 191 215 161 155 152 151 187 165 173 164 152 147 156 215 189 217 295 199 314 42 31 268 299 273 226 252 263 234 207 202 134 145 166 193 210 246 195 194 194 207 214 215 213 214 224 222 219 219 226 223 210 205 199 202 208 214 213 225 219 214 211 209 210 214 217 215 214 217 217 222 223 224 222 217 216 212 213 209 210 206 210 208
126 183 233 157 202 176 199 180 167 143 159 179 168 180 187 169 163 192 175 196 201 175 198 223 100 235 117 255 305 249 260 340 190 156 169 160 150 155 100 319 300 283 264 235 221 219 221 227 214 220 217 208 192 207 212 196 190 188 209 214 223 232 226 216 215 214 215 217 218 219 218 217 212 218 219 222 219 213 212 213 216 215 209 210 211 211
180 152 173 182 48 160 178 148 140 126 119 200 177 164 216 224 147 144 200 123 139 115 218 253 209 238 210 307 288 244 250 244 241 187 138 163 167 146 174 230 244 234 131 134 159 210 228 201 194 187 189 195 200 213 205 197 189 189 200 201 213 220 225 224 226 226 225 227 226 224 224 225 224 220 220 224 219 221 215 215 215 219 216 214 209 208
169 207 177 170 289 180 178 154 168 152 173 189 175 206 204 327 89 131 22 160 92 30 254 173 292 286 271 277 262 269 243 238 207 194 194 198 173 162 189 150 140 129 149 160 176 211 216 199 207 197 197 199 198 200 207 212 206 205 211 215 230 240 243 233 228 226 220 222 220 224 223 225 226 226 226 226 225 222 221 220 218 218 218 215 207 206
164 119 345 160 150 195 194 142 149 181 108 134 196 206 102 56 61 103 179 73 144 218 267 151 224 255 196 287 229 211 218 227 206 204 188 178 149 143 153 151 162 160 175 191 190 197 202 210 216 214 201 196 198 199 201 211 219 215 218 224 234 250 243 249 241 237 233 229 233 232 231 228 225 227 229 229 229 224 221 223 224 220 218 216 207 200
116 84 270 297 169 166 242 120 161 217 211 183 182 149 140 227 242 238 101 224 173 219 269 238 212 232 194 230 22 195 197 217 216 199 155 167 148 146 159 168 177 186 148 156 182 193 214 213 217 208 205 208 195 192 187 192 179 184 214 235 230 232 234 234 237 239 243 233 227 226 229 229 233 231 229 228 228 224 227 229 227 226 226 217 202 198
165 132 129 332 203 181 194 174 181 188 262 342 127 183 223 64 226 161 194 170 111 231 209 286 161 253 197 224 211 231 193 199 209 198 174 169 155 160 174 179 182 175 176 190 193 207 214 218 207 195 185 184 187 185 191 187 190 205 210 211 228 242 250 260 255 244 243 248 250 256 256 248 240 239 234 231 226 227 230 231 227 228 224 219 199 198
179 124 149 158 241 162 189 199 204 177 171 178 177 190 200 197 250 96 235 172 169 188 199 263 280 258 243 202 202 213 190 196 184 167 150 162 155 169 174 180 185 185 190 200 210 222 226 240 231 189 175 174 160 163 172 190 207 215 212 215 217 216 231 237 243 246 247 248 250 248 246 246 246 247 245 244 235 235 234 232 230 229 225 206 207 188
143 173 148 138 164 198 203 193 242 180 186 187 179 188 184 160 123 170 225 157 222 153 224 213 254 263 300 149 192 203 185 172 155 141 157 170 167 172 176 181 179 184 201 198 213 218 234 249 259 187 161 174 170 200 204 211 209 223 227 224 219 221 226 228 236 227 240 244 248 248 248 252 250 251 251 250 250 248 247 243 234 230 219 213 208 192
151 116 128 172 187 183 158 311 108 18 178 203 187 202 179 185 172 140 201 219 162 236 322 127 319 273 221 158 154 183 162 142 149 148 164 177 172 165 172 176 189 185 191 201 208 221 232 235 233 205 212 227 211 203 199 194 195 205 212 214 217 207 230 223 231 233 229 233 242 252 257 257 256 255 254 253 256 260 260 262 260 242 215 214 207 206
64 121 107 69 55 357 4 54 8 30 88 193 225 207 179 197 198 198 139 147 175 175 214 229 242 247 298 5 43 97 134 142 134 148 159 157 149 155 167 177 187 201 220 225 224 231 239 243 243 237 263 245 216 195 203 206 205 207 208 211 208 212 222 227 227 228 235 243 247 246 248 247 247 254 252 250 248 251 257 262 264 258 230 216 204 198
173 243 120 120 105 137 3 9 233 200 184 215 203 205 204 204 196 222 47 23 167 212 194 166 233 253 235 166 112 108 117 123 134 136 140 149 162 163 173 190 191 200 212 221 224 236 243 249 254 243 229 246 231 209 198 199 201 196 209 205 210 219 218 218 219 215 228 229 238 242 239 242 239 240 244 244 242 245 248 252 253 253 243 217 220 216
197 156 155 170 166 172 178 190 189 196 205 201 213 184 212 200 194 180 222 187 224 236 171 208 253 250 107 87 139 139 127 119 153 162 153 149 170 178 185 195 194 192 208 215 228 226 229 233 234 257 263 240 222 216 220 215 212 214 208 212 206 209 216 220 207 216 231 247 247 249 247 246 245 245 253 261 263 258 252 251 245 239 237 226 230 218
183 182 200 188 186 191 196 189 98 88 79 180 183 197 198 202 187 194 173 219 228 218 195 219 226 252 145 199 195 171 166 165 175 162 167 189 194 194 191 191 192 202 208 214 219 225 242 269 254 240 218 199 211 217 218 219 229 224 220 226 221 211 210 219 214 242 255 271 269 272 270 276 274 277 272 272 272 269 257 245 241 236 229 212 214 213
113 185 208 201 217 216 167 123 151 163 180 195 190 188 188 193 196 190 192 211 211 77 257 233 226 228 232 199 197 192 193 181 175 176 181 183 200 195 193 192 207 218 225 234 246 243 238 241 237 215 197 199 224 231 227 227 227 227 225 238 238 224 209 208 212 242 246 253 267 276 291 297 300 302 297 294 292 289 282 278 264 251 249 234 229 216
159 207 202 197 216 182 136 152 160 169 188 188 186 188 191 188 197 205 214 225 162 202 223 234 178 222 227 183 208 200 183 188 180 189 191 187 179 183 180 198 209 217 221 223 235 233 230 234 220 200 197 216 218 224 237 238 247 253 260 255 241 212 214 196 199 230 243 255 264 275 282 281 271 262 272 286 292 293 292 282 276 278 270 257 251 246
144 228 201 199 207 201 179 155 163 167 174 176 184 192 191 187 199 210 224 218 198 224 234 227 174 220 228 201 207 207 190 184 191 169 152 164 177 180 191 203 214 210 212 219 227 227 217 210 192 187 200 221 220 231 239 249 254 247 239 245 234 222 233 172 205 219 247 254 268 286 284 275 274 270 271 268 260 263 270 276 278 273 266 256 250 248
177 219 192 174 202 208 201 167 165 168 164 183 186 187 188 193 205 218 227 225 213 236 243 239 267 278 245 199 194 186 171 185 133 150 172 169 170 191 200 210 218 220 216 220 222 212 201 190 181 187 203 232 236 229 227 231 240 258 263 262 234 213 213 174 204 220 236 253 247 251 257 286 292 307 291 274 284 281 268 261 264 263 261 261 259 246
188 222 172 176 195 217 206 185 187 167 171 175 182 182 182 188 201 213 222 220 201 224 231 239 266 254 172 148 160 180 187 173 173 176 169 192 200 195 197 210 213 216 213 213 210 191 182 181 188 197 221 237 235 224 225 256 274 311 298 284 262 229 160 150 179 233 248 230 224 205 213 262 282 282 273 282 265 271 281 281 271 262 259 256 250 250
191 185 183 173 202 217 197 170 151 128 134 188 191 188 191 198 202 210 221 220 210 220 213 200 234 221 154 169 180 211 166 182 185 178 199 211 209 195 199 202 207 212 210 197 184 195 194 193 197 205 228 224 209 219 247 108 22 336 321 21 11 104 113 143 181 248 257 256 210 200 201 211 237 259 277 279 294 295 312 229 249 251 246 250 270 158
187 195 177 164 202 212 157 153 137 146 198 214 206 196 189 196 201 206 216 219 219 206 218 219 228 125 177 164 192 202 193 198 192 206 204 199 203 209 205 207 210 206 199 187 177 190 203 193 201 211 207 203 144 94 80 71 271 263 102 90 80 94 159 158 214 221 257 261 237 208 197 188 195 256 270 260 211 152 193 210 250 261 248 223 176 208
186 191 200 173 200 189 148 147 173 203 215 228 196 174 199 200 199 215 227 224 219 215 230 237 236 230 201 202 196 210 218 210 209 223 230 215 199 196 205 218 218 198 183 181 188 200 201 199 205 202 100 82 86 51 43 14 40 52 21 26 74 70 52 27 340 263 250 240 235 195 193 192 196 210 196 167 147 139 136 221 239 210 222 187 208 211
202 185 173 191 139 94 162 177 199 222 230 133 124 152 180 202 219 220 243 239 226 215 218 229 234 231 226 230 218 210 211 208 242 249 238 212 181 197 226 234 203 173 181 196 194 207 195 198 186 156 134 101 64 38 48 42 28 26 336 79 95 75 64 17 328 312 318 289 229 211 206 199 207 198 175 156 154 175 212 223 209 216 197 165 178 174
208 211 197 184 176 183 185 185 212 24 313 148 141 173 171 194 203 197 213 232 224 220 211 228 236 228 226 228 196 203 179 151 261 257 243 183 224 228 230 231 180 197 191 205 186 196 161 130 111 108 101 79 78 69 57 24 14 18 358 88 77 73 39 1 313 300 292 280 248 225 212 203 203 204 183 173 176 205 211 201 210 188 148 165 173 195
190 202 187 168 232 170 172 185 212 246 246 213 214 206 194 203 201 198 219 272 178 203 214 222 229 224 219 219 194 166 125 156 247 254 228 164 218 229 237 191 167 167 172 164 104 106 102 100 93 84 108 105 73 69 47 16 23 60 93 113 107 86 41 351 318 301 303 297 271 242 221 205 194 196 189 190 215 215 207 187 172 176 166 179 186 209
115 163 186 193 146 137 186 189 195 211 231 226 213 187 186 181 125 115 151 252 245 201 206 210 225 222 211 211 184 126 131 194 242 247 230 197 214 221 190 170 189 177 158 156 155 140 118 113 123 131 107 86 65 8 17 18 41 67 68 117 110 95 49 352 315 310 299 287 268 249 218 203 198 193 190 211 230 203 194 188 186 182 155 154 146 154
166 165 139 172 135 216 201 196 210 204 238 231 139 180 167 128 126 102 205 248 252 210 194 206 217 216 206 202 166 166 161 224 241 245 224 190 201 194 174 182 179 157 120 108 83 118 126 133 121 87 77 73 39 356 4 19 72 77 72 92 97 45 353 336 352 332 343 344 346 323 233 190 190 192 192 211 190 152 168 155 119 113 131 106 118 123
169 161 192 193 187 198 200 255 346 287 262 201 185 156 153 130 140 192 211 230 254 142 195 204 205 208 194 190 174 188 211 219 231 204 155 165 157 161 143 152 166 157 145 129 126 120 115 113 108 101 97 89 39 6 5 43 78 80 74 65 59 39 3 317 136 50 12 2 32 25 25 27 129 186 186 176 179 170 154 151 147 143 139 133 108 107
168 148 96 165 198 194 192 211 232 260 247 130 223 146 142 143 186 208 227 163 121 179 179 182 193 197 190 193 191 199 211 220 205 119 141 154 166 169 146 132 108 86 82 100 121 132 122 110 100 96 86 70 53 44 42 73 86 76 70 68 43 9 339 359 9 102 52 28 20 21 18 27 32 50 90 113 124 119 112 90 123 144 149 127 119 120
174 165 182 190 181 151 71 216 281 276 229 163 151 153 168 181 213 204 68 8 132 172 182 201 202 206 195 206 206 211 225 191 160 169 158 151 142 154 149 145 142 140 138 129 123 144 126 112 103 96 94 71 56 47 37 84 89 83 78 59 12 341 360 9 24 63 81 45 30 18 17 14 32 31 43 56 77 111 102 87 88 96 120 120 119 128
161 187 184 210 174 165 184 190 211 222 46 126 146 186 206 195 136 165 126 180 218 161 181 192 206 197 189 203 206 218 227 184 164 150 157 159 154 135 131 123 116 112 108 112 127 127 109 106 107 102 88 70 57 47 37 84 98 87 77 44 353 2 11 21 25 54 62 50 31 28 22 21 19 23 27 40 64 80 97 79 83 76 77 87 115 118
182 197 176 189 183 183 194 209 195 67 157 173 176 196 189 208 198 187 148 166 164 212 207 171 198 188 181 190 203 207 218 194 187 179 158 170 150 149 146 153 143 138 136 130 122 110 106 119 120 111 93 72 64 52 45 50 97 92 73 12 11 11 17 29 49 58 56 44 33 25 19 25 24 23 20 21 42 65 67 71 73 70 53 76 58 65
181 194 72 54 214 248 294 298 307 265 181 251 264 206 180 207 217 139 135 184 240 188 180 177 195 182 193 189 191 218 210 191 158 167 150 150 146 137 123 114 106 104 111 110 104 99 107 106 102 102 95 70 56 55 54 50 69 84 63 8 10 8 28 61 69 63 53 52 41 19 12 41 38 23 19 17 26 45 63 84 59 70 62 60 58 78
157 155 191 203 134 169 243 242 238 236 211 203 225 254 274 207 210 191 156 204 271 158 170 107 148 176 185 177 191 195 197 161 157 158 149 146 146 148 143 131 124 124 125 113 114 113 107 107 101 95 90 80 51 57 59 66 56 66 51 31 6 9 52 80 86 76 54 46 56 32 27 40 36 36 20 8 27 49 57 56 52 68 71 70 64 69
229 163 177 194 167 185 226 222 237 240 212 207 200 213 219 218 214 171 140 139 137 223 182 190 135 113 133 147 170 149 159 159 147 161 158 156 149 142 135 127 122 106 89 95 99 101 100 103 110 106 97 88 74 70 65 62 53 34 28 21 19 24 66 76 81 89 83 70 72 57 73 70 29 50 61 21 21 34 36 38 58 65 80 142 295 200
161 158 201 165 199 225 263 311 264 289 227 220 213 214 200 190 195 192 189 161 171 151 107 70 104 155 142 171 150 147 150 179 162 158 149 142 137 136 133 126 114 111 113 107 101 101 109 115 106 105 102 97 87 74 63 54 44 29 27 15 14 27 78 84 78 80 72 63 51 43 54 55 47 46 68 51 53 54 57 63 42 25 55 40 27 60
108 181 167 161 218 235 218 220 191 180 226 224 204 197 209 206 184 196 188 171 143 157 170 111 48 53 129 154 157 154 160 163 159 144 142 145 142 134 129 123 119 112 103 97 98 102 103 105 114 114 104 94 81 68 64 50 36 26 21 18 15 26 70 95 89 75 64 50 43 26 38 43 32 27 38 40 46 47 12 356 26 63 109 3 27 50
174 177 175 186 190 223 225 228 195 226 331 157 187 200 195 195 166 176 196 205 207 196 178 142 123 118 136 126 168 153 155 155 150 133 125 131 131 132 134 134 129 122 116 116 113 110 113 113 111 108 102 100 89 75 67 56 31 23 15 15 9 27 46 87 95 75 66 62 49 39 47 50 37 26 42 34 27 28 57 5 350 17 24 34 13 27